Flag for Spain Weather past 2 weeks in Mahón, Menorca, Spain

Now
56 °F

Passing clouds.


Feels Like: 54 °F
Forecast: 52 / 58 °F
Wind: 8 mph from Northwest

Location: Menorca / Mahon

Current Time: Dec 19, 2014 at 5:00:43 AM

Latest Report: Dec 19, 2014 at 4:00 AM


Visibility: 13 mi

Pressure: 30.31 "Hg

Humidity: 87%

Dew point: 52 °F

Location of MahónLocation

Historic Weather in Mahón — Graph

°F

Mahón temperature yesterday

Maximum temperature yesterday: 62 °F (at 1:00 PM)
Minimum temperature yesterday: 55 °F (at 2:00 AM)
Average temperature yesterday: 58 °F

Past Weeks' High & Low Weather Summary

 TemperatureHumidityPressure
High63 °F (Dec 13, 11:00 AM)100% (Dec 4, 6:00 AM)30.34 "Hg (Dec 4, 6:00 AM)
Low45 °F (Dec 9, 10:00 AM)49% (Dec 9, 7:00 AM)29.78 "Hg (Dec 4, 2:00 PM)
Average54 °F79%30.10 "Hg
* Reported Dec 4 3:00 AM — Dec 19 3:00 AM, Mahón, Weather by CustomWeather, © 2014

Note: Actual official high and low records may vary slightly from our data, if they occured in-between our weather recording intervals... More about our weather records

Advertising

Mahón weather history for previous 24 hours

 ConditionsComfort  
Time TempWeatherWind HumidityBarometerVisibility
3:00 AM
Dec 19
56 °FCool.9 mph87%30.32 "HgN/A
2:00 AM56 °FCool.9 mph86%30.31 "HgN/A
1:00 AM56 °FCool.6 mph86%30.32 "HgN/A
12:00 AM57 °FCool.8 mph88%30.32 "HgN/A
11:00 PM
Dec 18
56 °FCool.6 mph89%30.32 "HgN/A
9:00 PM56 °FCool.8 mph88%30.30 "HgN/A
8:00 PM56 °FCool.7 mph88%30.29 "HgN/A
7:00 PM56 °FPassing clouds.8 mph89%30.27 "Hg12 mi
6:00 PM58 °FCool.6 mph87%30.26 "HgN/A
5:00 PM58 °FCool.3 mph85%30.25 "HgN/A
4:00 PM59 °FOvercast.7 mph77%30.23 "Hg14 mi
3:00 PM60 °FCool.7 mph77%30.23 "HgN/A
2:00 PM61 °FOvercast.6 mph72%30.22 "Hg25 mi
1:00 PM62 °FOvercast.7 mph70%30.13 "Hg25 mi
12:00 PM61 °FCool.6 mph75%30.22 "HgN/A
11:00 AM59 °FCool.9 mph80%30.23 "HgN/A
10:00 AM58 °FOvercast.10 mph84%30.21 "Hg25 mi
9:00 AM57 °FCool.8 mph86%30.19 "HgN/A
8:00 AM57 °FDrizzle. Overcast.9 mph84%30.17 "Hg12 mi
7:00 AM57 °FOvercast.7 mph84%30.15 "Hg11 mi
6:00 AM57 °FCool.8 mph86%30.14 "HgN/A
5:00 AM57 °FCool.9 mph80%30.12 "HgN/A
Weather by CustomWeather, © 2014

See weather overviewHow to use our weather pages